Weather History for Milton, FL

Change the Weather History Date:

Monday, January 2, 2012

  Actual Average (KNSE) Record (KNSE)
Temperature  
Mean Temperature 47 °F -  
Max Temperature 55 °F 59 °F 73 °F (1997)
Min Temperature 39 °F 42 °F 23 °F (2001)
Degree Days  
Heating Degree Days 18    
Growing Degree Days 0 (Base 50)    
Moisture  
Dew Point 23 °F    
Average Humidity 43    
Maximum Humidity 67    
Minimum Humidity 19    
Precipitation  
Precipitation 0.00 in - - ()
Sea Level Pressure  
Sea Level Pressure 30.32 in    
Wind  
Wind Speed 9 mph (NW)    
Max Wind Speed 18 mph    
Max Gust Speed 25 mph    
Visibility 10 miles    
Events      
Averages and records for this station are not official NWS values.
T = Trace of Precipitation, MM = Missing Value Source: NWS Daily Summary

Daily Weather History Graph

Daily Weather History Graph

Search for Another Location

Airport:

Trip Planner

Search our weather history database for the weather conditions in past years. The results will help you decide how hot, cold, wet, or windy it might be!

Date:

Astronomy

Jan. 02, 2012 Rise Set
Actual Time 6:45 AM CST 4:58 PM CST
Civil Twilight 6:19 AM CST 5:24 PM CST
Nautical Twilight 5:49 AM CST 5:54 PM CST
Astronomical Twilight 5:19 AM CST 6:24 PM CST
Moon 12:05 PM CST (1/2) 12:49 AM CST (1/2)
Length of Visible Light 11h 05m
Length of Day
10h 12m
Waxing Gibbous, 64% of the Moon is Illuminated
Jan 2
Waxing Gibbous
Jan 9
Full
Jan 16
Last Quarter
Jan 23
New
Jan 30
First Quarter

Hourly Weather History & Observations

Time (CST) Temp. Windchill Dew Point Humidity Pressure Visibility Wind Dir Wind Speed Gust Speed Precip Events Conditions
12:56 AM 48.9 °F - 33.1 °F 54% 30.26 in 10.0 mi NNW 11.5 mph - N/A   Clear
1:56 AM 46.0 °F 42.5 °F 33.1 °F 61% 30.27 in 10.0 mi NNW 6.9 mph - N/A   Clear
2:56 AM 43.0 °F 39.5 °F 32.0 °F 65% 30.27 in 10.0 mi NNW 5.8 mph - N/A   Clear
3:56 AM 42.1 °F 37.7 °F 32.0 °F 67% 30.29 in 10.0 mi NW 6.9 mph - N/A   Clear
4:56 AM 42.1 °F 37.7 °F 30.9 °F 65% 30.29 in 10.0 mi NW 6.9 mph - N/A   Clear
5:56 AM 42.1 °F 36.1 °F 28.9 °F 60% 30.30 in 10.0 mi NNW 10.4 mph - N/A   Clear
6:56 AM 39.9 °F 34.5 °F 28.0 °F 63% 30.34 in 10.0 mi NW 8.1 mph - N/A   Clear
7:56 AM 42.1 °F 36.6 °F 30.0 °F 62% 30.37 in 10.0 mi NW 9.2 mph - N/A   Clear
8:56 AM 46.0 °F 40.6 °F 25.0 °F 44% 30.38 in 10.0 mi NNW 11.5 mph - N/A   Clear
9:56 AM 50.0 °F - 21.9 °F 33% 30.38 in 10.0 mi NNW 11.5 mph 21.9 mph N/A   Clear
10:56 AM 52.0 °F - 21.0 °F 30% 30.37 in 10.0 mi NNW 18.4 mph 25.3 mph N/A   Clear
11:56 AM 53.1 °F - 19.0 °F 26% 30.35 in 10.0 mi NNW 16.1 mph 24.2 mph N/A   Clear
12:56 PM 53.1 °F - 18.0 °F 25% 30.32 in 10.0 mi NW 15.0 mph 23.0 mph N/A   Clear
1:56 PM 55.0 °F - 16.0 °F 22% 30.30 in 10.0 mi NW 10.4 mph - N/A   Clear
2:56 PM 55.0 °F - 12.9 °F 19% 30.28 in 10.0 mi NW 15.0 mph 23.0 mph N/A   Clear
3:56 PM 54.0 °F - 15.1 °F 22% 30.25 in 10.0 mi WNW 5.8 mph - N/A   Clear
4:56 PM 48.9 °F - 21.0 °F 33% 30.26 in 10.0 mi Calm Calm - N/A   Clear
5:56 PM 45.0 °F - 21.9 °F 40% 30.28 in 10.0 mi Calm Calm - N/A   Clear
6:56 PM 42.1 °F 39.2 °F 21.9 °F 45% 30.29 in 10.0 mi West 4.6 mph - N/A   Clear
7:56 PM 42.1 °F 38.4 °F 21.0 °F 43% 30.31 in 10.0 mi WNW 5.8 mph - N/A   Clear
8:56 PM 43.0 °F 39.5 °F 18.0 °F 37% 30.34 in 10.0 mi NW 5.8 mph - N/A   Clear
9:56 PM 43.0 °F 35.7 °F 15.1 °F 32% 30.37 in 10.0 mi NW 15.0 mph 23.0 mph N/A   Clear
10:56 PM 41.0 °F 33.5 °F 15.1 °F 35% 30.38 in 10.0 mi NW 13.8 mph 23.0 mph N/A   Clear
11:56 PM 39.9 °F 33.4 °F 16.0 °F 38% 30.38 in 10.0 mi NW 10.4 mph - N/A   Clear